Regional Weather Roundup
Issued by NWS Tiyan, Guam

Home | Current Version | Previous Version | Text Only | Print | Product List | Glossary On
Versions: 1 2 3 4 5 6 7 8 9 10 11 12 13 14 15 16 17 18 19 20 21 22 23 24 25 26 27 28 29 30 31 32 33 34 35 36 37 38 39 40 41 42 43 44 45 46 47 48 49 50
000
ASGM40 PGUM 232312
RWRGUM
WEATHER ROUNDUP FOR THE MARIANAS
NATIONAL WEATHER SERVICE TIYAN GU
900 AM CHST SAT JUN 24 2017

GUZ001>004-240000-
MARIANA ISLANDS-

CITY           SKY/WX    TMP DP  RH WIND       PRES   REMARKS
GUAM AIRPORT   MOSUNNY   84  79  84 VRB6      29.86R HX  96
ANDERSEN AFB   MOSUNNY   84  77  79 SE6       29.87R HX  94
ROTA AIRPORT   MOSUNNY   82  77  83 E14       29.86S HX  91
TINIAN AP      PTSUNNY   84  77  79 NE9       29.83F HX  94
SAIPAN AP      MOSUNNY   88  77  70 E10       29.84F HX 100

$$




USA.gov is the U.S. government's official web portal to all federal, state and local government web resources and services.